TimeEDT,TemperatureF,Dew PointF,Humidity,Sea Level PressureIn,VisibilityMPH,Wind Direction,Wind SpeedMPH,Gust SpeedMPH,PrecipitationIn,Events,Conditions,WindDirDegrees,DateUTC
12:46 AM,53.6,51.8,94,29.70,10.0,WSW,4.6,-,N/A,,Overcast,240,2013-10-18 04:46:00
12:54 AM,53.1,51.1,93,29.69,10.0,WSW,10.4,-,N/A,,Overcast,250,2013-10-18 04:54:00
1:01 AM,53.6,51.8,94,29.71,10.0,West,9.2,-,N/A,,Overcast,260,2013-10-18 05:01:00
1:35 AM,53.6,51.8,94,29.71,9.0,WSW,5.8,-,0.00,Rain,Light Rain,240,2013-10-18 05:35:00
1:54 AM,53.1,51.1,93,29.70,10.0,WSW,6.9,-,0.00,Rain,Light Rain,240,2013-10-18 05:54:00
2:21 AM,53.6,51.8,94,29.72,7.0,WSW,6.9,-,0.00,,Overcast,240,2013-10-18 06:21:00
2:28 AM,53.6,51.8,94,29.73,4.0,West,10.4,-,0.00,Rain,Light Rain,260,2013-10-18 06:28:00
2:36 AM,53.6,51.8,94,29.73,5.0,West,11.5,-,0.01,Rain,Light Rain,270,2013-10-18 06:36:00
2:52 AM,53.6,51.8,94,29.72,7.0,West,9.2,-,0.03,Rain,Light Rain,260,2013-10-18 06:52:00
2:53 AM,53.1,51.1,93,29.71,8.0,West,8.1,-,0.03,Rain,Light Rain,260,2013-10-18 06:53:00
3:28 AM,53.6,51.8,94,29.73,10.0,WSW,12.7,-,0.00,,Overcast,250,2013-10-18 07:28:00
3:37 AM,53.6,51.8,94,29.73,10.0,WSW,10.4,-,0.00,,Overcast,250,2013-10-18 07:37:00
3:54 AM,53.1,51.1,93,29.73,10.0,WSW,12.7,-,0.00,,Overcast,250,2013-10-18 07:54:00
4:54 AM,53.1,48.9,86,29.74,10.0,SW,9.2,-,N/A,,Overcast,230,2013-10-18 08:54:00
5:54 AM,53.1,48.0,83,29.75,10.0,WSW,11.5,-,N/A,,Overcast,240,2013-10-18 09:54:00
6:54 AM,53.1,46.9,80,29.77,10.0,WSW,11.5,-,N/A,,Overcast,240,2013-10-18 10:54:00
7:54 AM,53.1,46.0,77,29.79,10.0,WSW,17.3,24.2,N/A,,Scattered Clouds,240,2013-10-18 11:54:00
8:54 AM,54.0,46.0,75,29.81,10.0,SW,13.8,21.9,N/A,,Scattered Clouds,230,2013-10-18 12:54:00
9:54 AM,55.0,46.9,74,29.83,10.0,SW,19.6,24.2,N/A,,Mostly Cloudy,230,2013-10-18 13:54:00
10:27 AM,55.4,46.4,72,29.85,10.0,WSW,23.0,27.6,N/A,,Mostly Cloudy,250,2013-10-18 14:27:00
10:51 AM,55.4,46.4,72,29.86,10.0,WSW,18.4,28.8,N/A,,Overcast,250,2013-10-18 14:51:00
10:54 AM,55.9,46.0,69,29.85,10.0,WSW,19.6,26.5,N/A,,Overcast,250,2013-10-18 14:54:00
11:05 AM,57.2,44.6,63,29.86,10.0,WSW,18.4,26.5,N/A,,Mostly Cloudy,250,2013-10-18 15:05:00
11:54 AM,60.1,41.0,49,29.86,10.0,West,20.7,28.8,N/A,,Scattered Clouds,260,2013-10-18 15:54:00
12:54 PM,60.1,36.0,41,29.86,10.0,WSW,24.2,34.5,N/A,,Scattered Clouds,250,2013-10-18 16:54:00
1:54 PM,59.0,37.9,46,29.87,10.0,WSW,20.7,27.6,N/A,,Partly Cloudy,250,2013-10-18 17:54:00
2:54 PM,60.1,37.0,42,29.86,10.0,WSW,25.3,32.2,N/A,,Scattered Clouds,240,2013-10-18 18:54:00
3:54 PM,59.0,37.9,46,29.88,10.0,West,21.9,27.6,N/A,,Scattered Clouds,260,2013-10-18 19:54:00
4:54 PM,57.0,39.0,51,29.88,10.0,West,13.8,-,N/A,,Mostly Cloudy,260,2013-10-18 20:54:00
5:54 PM,55.0,39.0,55,29.88,10.0,NW,5.8,-,N/A,,Scattered Clouds,310,2013-10-18 21:54:00
6:54 PM,54.0,39.9,59,29.90,10.0,Calm,Calm,-,N/A,,Mostly Cloudy,0,2013-10-18 22:54:00
7:54 PM,51.1,42.1,71,29.90,10.0,SSW,3.5,-,N/A,,Mostly Cloudy,200,2013-10-18 23:54:00
8:54 PM,48.0,41.0,77,29.91,10.0,SSE,3.5,-,N/A,,Scattered Clouds,150,2013-10-19 00:54:00
9:54 PM,50.0,41.0,71,29.91,10.0,SSW,5.8,-,N/A,,Partly Cloudy,200,2013-10-19 01:54:00
10:54 PM,50.0,42.1,74,29.91,10.0,Variable,4.6,-,N/A,,Mostly Cloudy,0,2013-10-19 02:54:00
11:54 PM,48.0,43.0,83,29.91,10.0,Calm,Calm,-,N/A,,Scattered Clouds,0,2013-10-19 03:54:00